Погода в Селычке

Россия / Удмуртская Республика     57˚04′15″N   53˚11′30″E
темп.,
°C
ветер,
м/с
пор.,
м/с
влажн.,
%
обл.,
%
осадки,
мм/ч
давл.,
гПа
погр.,
м
17 января, вс
вс1701:00−12˚ююз41193100 0.3 998683
04:00−13˚ююз41094100 0.6 997544
07:00−13˚юз499499 0.3 997520
10:00−14˚зюз499399 0.5 1000520
13:00−13˚з4891100 0.1 1003594
16:00−15˚з3893100 0.1 1007339
19:00−20˚зсз239890 0.0 101144
22:00−23˚сз229754 0.0 101420
18 января, пн
пн1801:00−25˚зсз11976 0.0 101620
04:00−26˚з12986 0.0 101819
07:00−27˚зюз119919 0.0 101819
10:00−26˚зюз129848 0.0 101937
13:00−21˚юз239517 0.0 1019230
16:00−22˚юз229739 0.0 101923
19:00−26˚з119915 0.0 101920
22:00−26˚з129830 0.0 102019
19 января, вт
вт1901:00−26˚ссз119854 0.0 102019
04:00−25˚всв119676 0.0 101920
07:00−24˚всв2295100 0.0 101928
10:00−23˚св2595100 0.0 1019187
13:00−20˚св3694100 0.0 1017261
16:00−20˚св3894100 0.0 1016288
19:00−20˚св41088100 0.0 1015312
22:00−20˚св41087100 0.0 1015313
20 января, ср
ср2001:00−20˚св4991100 0.0 1014319
04:00−20˚св4993100 0.0 1014323
07:00−20˚св3994100 0.0 1014305
10:00−19˚всв3894100 0.0 1016293
13:00−17˚св3694100 0.0 1016298
16:00−18˚св2497100 0.1 1017113
19:00−21˚св2210091 0.0 101820
22:00−22˚в1110094 0.1 101920
21 января, чт
чт2101:00−23˚ююз11100100 0.0 101920
04:00−22˚ююз2299100 0.1 101948
07:00−22˚юз2699100 0.0 1018159
10:00−21˚юз3698100 0.2 1018272
13:00−19˚зюз3595100 0.3 1017344
16:00−18˚зюз2596100 0.4 1016319
19:00−18˚юз2598100 0.2 1016200
22:00−17˚юз2597100 0.4 1016216